Flag for Canada Weather past 2 weeks in Hay River, Northwest Territories, Canada

Now
-11 °F

Light snow. Mostly cloudy.


Feels Like: -25 °F
Forecast: -26 / -16 °F
Wind: 6 mph from Northwest

Location: Hay River

Current Time: Dec 27, 2014 at 4:01:33 PM

Latest Report: Dec 27, 2014 at 3:00 PM


Visibility: 15 mi

Pressure: 30.38 "Hg

Humidity: 76%

Dew point: -17 °F

Location of Hay RiverLocation

Historic Weather in Hay River — Graph

°F

Hay River temperature yesterday

Maximum temperature yesterday: -26 °F (at 1:00 PM)
Minimum temperature yesterday: -38 °F (at 2:00 AM)
Average temperature yesterday: -30 °F

Past Weeks' High & Low Weather Summary

 TemperatureHumidityPressure
High23 °F (Dec 15, 3:00 PM)93% (Dec 15, 10:00 AM)30.45 "Hg (Dec 15, 10:00 AM)
Low-40 °F (Dec 25, 9:00 AM)59% (Dec 26, 12:00 AM)29.55 "Hg (Dec 20, 3:00 AM)
Average0 °F81%29.96 "Hg
* Reported Dec 12 2:00 PM — Dec 27 2:00 PM, Hay River, Weather by CustomWeather, © 2014

Note: Actual official high and low records may vary slightly from our data, if they occured in-between our weather recording intervals... More about our weather records

Advertising

Hay River weather history for previous 24 hours

 ConditionsComfort  
Time TempWeatherWind HumidityBarometerVisibility
2:00 PM
Dec 27
-11 °FLight snow. Mostly cloudy.5 mph76%30.35 "Hg15 mi
1:00 PM-13 °FLight snow. Overcast.5 mph76%30.34 "Hg15 mi
12:00 PM-13 °FOvercast.3 mph69%30.34 "Hg15 mi
11:00 AM-15 °FOvercast.2 mph76%30.33 "Hg15 mi
10:00 AM-17 °FOvercast.2 mph76%30.31 "Hg15 mi
9:00 AM-18 °FOvercast.No wind75%30.30 "Hg15 mi
8:00 AM-18 °FOvercast.No wind69%30.29 "Hg15 mi
7:00 AM-20 °FOvercast.2 mph68%30.29 "Hg15 mi
6:00 AM-22 °FPartly cloudy.2 mph68%30.29 "Hg15 mi
5:00 AM-26 °FPartly cloudy.2 mph75%30.28 "Hg15 mi
4:00 AM-24 °FPassing clouds.2 mph68%30.27 "Hg15 mi
3:00 AM-26 °FPassing clouds.5 mph67%30.27 "Hg15 mi
2:00 AM-26 °FPassing clouds.2 mph67%30.27 "Hg15 mi
1:00 AM-26 °FPassing clouds.9 mph67%30.27 "Hg15 mi
12:00 AM-26 °FPassing clouds.7 mph75%30.27 "Hg15 mi
11:00 PM
Dec 26
-26 °FPassing clouds.3 mph75%30.27 "Hg15 mi
10:00 PM-26 °FPassing clouds.6 mph75%30.26 "Hg15 mi
9:00 PM-26 °FPassing clouds.9 mph67%30.26 "Hg15 mi
8:00 PM-26 °FPassing clouds.8 mph75%30.26 "Hg15 mi
7:00 PM-26 °FPassing clouds.8 mph67%30.25 "Hg15 mi
6:00 PM-26 °FPassing clouds.13 mph67%30.26 "Hg15 mi
5:00 PM-26 °FPassing clouds.8 mph67%30.27 "Hg15 mi
4:00 PM-26 °FPassing clouds.10 mph67%30.26 "Hg15 mi
Weather by CustomWeather, © 2014

See weather overviewHow to use our weather pages